Simultaneous Nadir Overpasses (SNOs) Predictions

Prediction of SNOs between LANDSAT-8 and METOP-B Satellite Orbit:

Table of predicted SNOs for the next 14.0 days since TLE Epoch: 3/25/2023
Index Date (LANDSAT-8) Time (LANDSAT-8) Lat,Lon (LANDSAT-8) SZA (LANDSAT-8 ) Date (METOP-B) Time (METOP-B) Lat,Lon (METOP-B) SZA (METOP-B ) Distance(km) Time Diff (sec)
1 03/26/2023 11:13:45 81.12, 50.92 80.77 03/26/2023 11:13:14 81.12, 50.93 80.77 0.44 31
2 03/26/2023 12:03:11 -81.14,-141.15 99.20 03/26/2023 12:03:53 -81.15,-141.03 99.17 2.29 42
3 03/29/2023 06:47:58 81.14, 117.62 79.74 03/29/2023 06:47:32 81.13, 117.62 79.72 0.47 26
4 03/29/2023 07:37:24 -81.16, -74.43 100.24 03/29/2023 07:38:11 -81.16, -74.33 100.21 1.80 47
5 04/01/2023 02:22:10 81.13,-176.10 78.65 04/01/2023 02:21:50 81.12,-176.21 78.63 1.90 20
6 04/01/2023 03:11:36 -81.15, -8.13 101.32 04/01/2023 03:12:29 -81.15, -8.15 101.30 0.36 53
7 04/03/2023 21:56:21 81.14,-109.50 77.61 04/03/2023 21:56:07 81.14,-109.43 77.61 1.12 14
8 04/03/2023 22:45:47 -81.16, 58.49 102.36 04/03/2023 22:46:46 -81.16, 58.64 102.31 2.50 59
9 04/06/2023 17:30:31 81.14, -42.95 76.58 04/06/2023 17:30:24 81.14, -42.81 76.59 2.43 7



Historial Predications of SNOs between LANDSAT-8 and METOP-B
